Regional Weather Roundup
Issued by NWS

Home | Current Version | Previous Version | Graphics & Text | Print | Product List | Glossary On
Versions: 1 2 3 4 5 6 7 8 9 10 11 12 13 14 15 16 17 18 19 20 21 22 23 24 25 26 27 28 29 30 31 32 33 34 35 36 37 38 39 40 41 42 43 44 45 46 47 48 49 50
968
ASUS43 KMKX 221511
RWRWI

WISCONSIN REGIONAL WEATHER ROUNDUP
NATIONAL WEATHER SERVICE MILWAUKEE/SULLIVAN WI
1000 AM CDT SAT JUL 22 2017

NOTE: "FAIR" INDICATES FEW OR NO CLOUDS BELOW 12,000 FEET WITH NO
SIGNIFICANT WEATHER AND/OR OBSTRUCTIONS TO VISIBILITY.

WIZ001-002-006>008-014>016-023>028-221600-
NORTHWEST WISCONSIN

CITY           SKY/WX    TMP DP  RH WIND       PRES   REMARKS
SUPERIOR ARPT  NOT AVBL
ASHLAND        MOSUNNY   73  66  78 W5        29.82F
HAYWARD        CLOUDY    71  65  81 CALM      29.83F
SIREN          CLOUDY    70  66  88 CALM      29.81R
CUMBERLAND     CLOUDY    72  64  78 CALM      29.81F
RICE LAKE      CLOUDY    73  65  77 CALM      29.85F
CHETEK         CLOUDY    73  66  77 CALM      29.84F
LADYSMITH      CLOUDY    73  65  77 CALM      29.87F
EAU CLAIRE     CLOUDY    76  67  73 N7        29.85R
MENOMONIE      SUNNY     76  67  75 NW9       29.86F
NEW RICHMOND   MOSUNNY   76  65  67 CALM      29.83F
OSCEOLA        MOSUNNY   75  67  74 SW7       29.85F
$$

WIZ003>005-009-010-017-018-221600-
NORTH CENTRAL WISCONSIN

CITY           SKY/WX    TMP DP  RH WIND       PRES   REMARKS
MANITOWISH WTR PTSUNNY   72  67  82 W6        29.85F
ARBOR VITAE    MOSUNNY   74  67  76 W7        29.86S
WOODRUFF       MOSUNNY   74  67  76 W7        29.86S
RHINELANDER    PTSUNNY   74  65  73 W6        29.88F
EAGLE RIVER    CLOUDY    72  63  72 SW8       29.86S
LAND O LAKES   PTSUNNY   73  64  71 CALM      29.88S
PHILLIPS       CLOUDY    72  67  83 CALM      29.85F
TOMAHAWK         N/A     72  64  76 SW3       29.88F
MEDFORD        CLOUDY    71  66  83 NE5       29.87F
MERRILL        CLOUDY    71  68  93 CALM      29.88S
$$

WIZ029-030-035-036-043>047-221600-
CENTRAL WISCONSIN

CITY           SKY/WX    TMP DP  RH WIND       PRES   REMARKS
WAUSAU         CLOUDY    72  67  84 N5        29.85S
MOSINEE        PTSUNNY   70  70 100 N6        29.87F
MARSHFIELD     CLOUDY    72  67  84 VRB5      29.86S
STEVENS POINT  CLOUDY    67  67  99 N5        29.86F FOG
WAUPACA        CLOUDY    74  65  73 CALM      29.86R
WAUTOMA        CLOUDY    70  67  90 N7        29.85S
WISC RAPIDS    CLOUDY    69  67  93 NE5       29.86F
CAMP DOUGLAS   CLOUDY    70  70 100 NW7       29.85S
$$

WIZ011>013-019>022-031-037>040-048>050-221600-
NORTHEAST WISCONSIN

CITY           SKY/WX    TMP DP  RH WIND       PRES   REMARKS
ANTIGO         CLOUDY    70  66  87 NW6       29.88S
SHAWANO        CLOUDY    74  62  66 CALM      29.84F
OCONTO         CLOUDY    72  64  74 CALM      29.84S
STURGEON BAY     N/A     72  64  76 SE5       29.85S
GREEN BAY      PTSUNNY   75  67  76 N3        29.83F
MANITOWOC      CLOUDY    72  64  76 E6        29.83F
APPLETON       CLOUDY    70  61  73 CALM      29.83F
CLINTONVILLE   CLOUDY    72  61  68 CALM      29.84F
OSHKOSH        CLOUDY    70  66  87 N7        29.83F FOG
$$

WIZ032>034-041-042-053>061-221600-
SOUTHWEST WISCONSIN

CITY           SKY/WX    TMP DP  RH WIND       PRES   REMARKS
LA CROSSE      CLOUDY    75  70  84 CALM      29.84R
SPARTA         CLOUDY    68  67  94 N5        29.86R
VIROQUA        CLOUDY    70  70 100 CALM      29.87R
BOSCOBEL       CLOUDY    74  71  91 W5        29.84S FOG
PRAIRIE DU CHI CLOUDY    74  69  84 SW6       29.84R
PLATTEVILLE    CLOUDY    75  73  94 W8        29.85S
$$

WIZ056-057-062-063-064-067-068-221600-
SOUTH CENTRAL WISCONSIN

CITY           SKY/WX    TMP DP  RH WIND       PRES   REMARKS
REEDSBURG      CLOUDY    69  69 100 CALM      29.84S
BARABOO/DELLS  CLOUDY    69  67  96 CALM      29.85R FOG
LONE ROCK      CLOUDY    73  70  90 NW5       29.84R
MINERAL POINT  CLOUDY    73  72  94 W8        29.86R
MADISON        CLOUDY    73  69  87 W6        29.84R
MIDDLETON      CLOUDY    74  74  99 W10       29.86R
WATERTOWN      CLOUDY    71  71 100 N5        29.83S
MONROE         CLOUDY    73  68  83 W7        29.85R
JANESVILLE     PTSUNNY   79  70  73 W10       29.84R HX  81
$$

WIZ051-052-058>065-066-070>072-221600-
SOUTHEAST WISCONSIN

CITY           SKY/WX    TMP DP  RH WIND       PRES   REMARKS
MILWAUKEE      CLOUDY    77  68  73 W13       29.82R
WAUKESHA       CLOUDY    73  68  83 W13       29.84R
MILWAUKEE/TIMM CLOUDY    73  64  73 W8        29.83R
RACINE         PTSUNNY   76  70  82 W9        29.84R
KENOSHA        PTSUNNY   74  68  81 W14       29.84R
FOND DU LAC    CLOUDY    70  65  84 N5        29.83F
SHEBOYGAN      CLOUDY    70  69  97 NE5       29.82S FOG
WEST BEND      CLOUDY    70  68  94 NW7       29.83S
JUNEAU         CLOUDY    67  67  98 CALM      29.84F FOG
$$

LSZ147-162-221600-
LAKE SUPERIOR

STATION/POSITION TIME  TEMP    WIND        PRES    WAVE
                       AIR SEA DIR/SP/G            HT/PER
                 (UTC) (F)     (DEG/KT/KT) (MB)    (FT/S)
W MID LAKE BUOY  1450   49 47   30/  8/ 10 1010.2F   2/ 4
DEVILS ISLAND    1500   57      40/  6/  7 1010.4S
SAXON HARBOR     1440   66      60/  7/  7 1009.5F
$$

LMZ867-665-643>646-221600-
LAKE MICHIGAN

STATION/POSITION TIME  TEMP    WIND        PRES    WAVE
                       AIR SEA DIR/SP/G            HT/PER
                 (UTC) (F)     (DEG/KT/KT) (MB)    (FT/S)
CHAMBERS ISLAND  1440   72     310/  4/  5 1009.8S
S GREEN BAY BUOY 1500   71 73  360/  2/  4 1010.5
N MID LAKE BUOY  1450   68 67  350/  2/  2 1010.8F   1/ 4
NORTHPORT PIER   1440   69      80/  3/  5 1010.5S
KEWAUNEE LAKESHO 1448   73      40/  2/  3 1009.5F
SHEBOYGAN LAKESH 1500   66      20/  9/ 10 1009.3R
PORT WASHINGTON  1440   73     340/  6/ 11 1010.5R
ATWATER BUOY     1309   68 68  360/  6/  6 1009.2R
MILWAUKEE LAKESH 1450   73      50/  2/  3   N/A
S MID LAKE BUOY  1450   70 70  330/  6/  8 1009.1R   2/ 5
KENOSHA   LAKESH 1500   74     280/  9/ 13 1010.2
$$

TC  - TEMPERATURE IN CELSIUS
VSB - VISIBILITY IN STATUTE MILES
WCI - WIND CHILL INDEX
HX  - HEAT INDEX





USA.gov is the U.S. government's official web portal to all federal, state and local government web resources and services.